Grand Rapids, MI

5:47 AM EDT on September 28, 2016 (GMT -0400)
Gerald R. Ford International

Weather History for KGRR - January, 2013

Change the Weather History Date:

Wednesday, January 2, 2013

  Actual Average Record
Temperature  
Mean Temperature 22 °F 25 °F  
Max Temperature 27 °F 31 °F 59 °F (2004)
Min Temperature 17 °F 19 °F -2 °F (2001)
Degree Days  
Heating Degree Days 43 40  
Month to date heating degree days 85 80  
Since 1 July heating degree days 2313 2529  
Cooling Degree Days 0 0  
Month to date cooling degree days 0 0  
Year to date cooling degree days 0 0  
Moisture  
Dew Point 17 °F    
Average Humidity 74    
Maximum Humidity 81    
Minimum Humidity 67    
Precipitation  
Precipitation T in 0.08 in 1.35 in (1897)
Month to date precipitation T 0.16  
Year to date precipitation T 0.16  
Snow  
Snow T in 0.70 in 6.40 in (1999)
Month to date snowfall 0.1 1.4  
Since 1 July snowfall 7.6 30.6  
Snow Depth 1.00 in    
Sea Level Pressure  
Sea Level Pressure 30.14 in    
Wind  
Wind Speed 9 mph (WSW)    
Max Wind Speed 16 mph    
Max Gust Speed 21 mph    
Visibility 9 miles    
Events Snow    
T = Trace of Precipitation, MM = Missing Value Source: NWS Daily Summary

Daily Weather History Graph

Daily Weather History Graph

Search for Another Location

Airport or City:

Trip Planner

Search our weather history database for the weather conditions in past years. The results will help you decide how hot, cold, wet, or windy it might be!

Date:

Astronomy

Jan. 02, 2013 Rise Set
Actual Time 8:13 AM EST 5:19 PM EST
Civil Twilight 7:41 AM EST 5:51 PM EST
Nautical Twilight 7:05 AM EST 6:27 PM EST
Astronomical Twilight 6:31 AM EST 7:01 PM EST
Moon 11:00 PM EST (1/2) 10:46 AM EST (1/2)
Length of Visible Light 10h 10m
Length of Day
9h 06m
Waning Gibbous, 75% of the Moon is Illuminated
Jan 2
Waning Gibbous
Jan 4
Last Quarter
Jan 11
New
Jan 18
First Quarter
Jan 26
Full

Hourly Weather History & Observations

Time (EST) Temp. Windchill Dew Point Humidity Pressure Visibility Wind Dir Wind Speed Gust Speed Precip Events Conditions
12:53 AM 21.9 °F 12.5 °F 12.9 °F 68% 30.11 in 10.0 mi WNW 8.1 mph 19.6 mph N/A   Overcast
1:53 AM 21.9 °F 10.4 °F 12.9 °F 68% 30.11 in 10.0 mi West 11.5 mph - N/A   Overcast
2:53 AM 23.0 °F 13.1 °F 14.0 °F 68% 30.12 in 10.0 mi West 9.2 mph - N/A   Overcast
3:53 AM 23.0 °F 14.7 °F 14.0 °F 68% 30.13 in 10.0 mi West 6.9 mph - N/A   Overcast
4:53 AM 23.0 °F 17.0 °F 15.1 °F 72% 30.11 in 10.0 mi WSW 4.6 mph - N/A   Overcast
5:53 AM 24.1 °F 17.0 °F 16.0 °F 71% 30.12 in 9.0 mi WSW 5.8 mph - 0.00 in Snow Light Snow
6:53 AM 25.0 °F 14.8 °F 16.0 °F 69% 30.12 in 10.0 mi WNW 10.4 mph - 0.00 in   Overcast
7:53 AM 25.0 °F 15.5 °F 17.1 °F 72% 30.14 in 10.0 mi West 9.2 mph - N/A   Overcast
8:53 AM 25.0 °F 16.3 °F 17.1 °F 72% 30.14 in 9.0 mi West 8.1 mph - 0.00 in Snow Light Snow
9:53 AM 26.6 °F 17.5 °F 17.6 °F 69% 30.13 in 6.0 mi West 9.2 mph - N/A Snow Light Snow
10:53 AM 27.0 °F 18.0 °F 19.0 °F 72% 30.18 in 9.0 mi West 9.2 mph - 0.00 in Snow Light Snow
11:53 AM 27.0 °F 18.7 °F 19.9 °F 75% 30.17 in 7.0 mi WSW 8.1 mph - 0.00 in Snow Light Snow
12:53 PM 27.0 °F 16.7 °F 19.9 °F 75% 30.16 in 6.0 mi West 11.5 mph - 0.00 in Snow Light Snow
1:53 PM 27.0 °F 16.1 °F 19.9 °F 75% 30.15 in 9.0 mi WSW 12.7 mph - 0.00 in Snow Light Snow
2:53 PM 27.0 °F 18.0 °F 19.9 °F 75% 30.14 in 9.0 mi WSW 9.2 mph - 0.00 in Snow Light Snow
3:45 PM 26.6 °F 18.2 °F 21.2 °F 80% 30.11 in 9.0 mi WSW 8.1 mph - 0.00 in   Overcast
3:53 PM 27.0 °F 19.5 °F 21.0 °F 78% 30.14 in 10.0 mi WSW 6.9 mph - 0.00 in   Overcast
4:53 PM 27.0 °F 21.6 °F 21.0 °F 78% 30.15 in 10.0 mi WSW 4.6 mph - N/A   Overcast
5:15 PM 26.6 °F 22.6 °F 21.2 °F 80% 30.12 in 10.0 mi SSW 3.5 mph - N/A   Overcast
5:53 PM 27.0 °F 19.5 °F 21.0 °F 78% 30.16 in 10.0 mi South 6.9 mph - N/A   Overcast
6:53 PM 27.0 °F 18.0 °F 19.9 °F 75% 30.17 in 10.0 mi South 9.2 mph - N/A   Overcast
7:53 PM 26.1 °F 15.6 °F 19.0 °F 75% 30.16 in 10.0 mi South 11.5 mph - N/A   Overcast
8:53 PM 25.0 °F 12.6 °F 16.0 °F 69% 30.16 in 10.0 mi South 15.0 mph - N/A   Overcast
9:53 PM 21.9 °F 11.7 °F 14.0 °F 72% 30.16 in 10.0 mi South 9.2 mph - N/A   Scattered Clouds
10:53 PM 19.0 °F 12.3 °F 10.9 °F 71% 30.16 in 10.0 mi South 4.6 mph - N/A   Clear
11:53 PM 17.1 °F 5.8 °F 10.9 °F 77% 30.15 in 10.0 mi South 9.2 mph - N/A   Clear